Date,TemperatureHighF,TemperatureAvgF,TemperatureLowF,DewpointHighF,DewpointAvgF,DewpointLowF,HumidityHigh,HumidityAvg,HumidityLow,PressureMaxIn,PressureMinIn,WindSpeedMaxMPH,WindSpeedAvgMPH,GustSpeedMaxMPH,PrecipitationSumIn
2014-1-1,9.6,4.6,0.2,3.3,-0.9,-5.5,82,77,70,30.50,30.42,0,-999,0,0.00
2014-1-2,11.7,6.1,-4.0,4.4,-0.2,-10.1,83,75,67,30.55,30.38,0,-999,0,0.00
2014-1-3,17.4,5.5,-6.8,13.4,0.7,-11.1,87,80,72,30.53,29.87,0,-999,0,0.00
2014-1-4,33.4,24.7,15.1,28.2,19.2,7.8,84,79,72,30.18,29.78,0,-999,0,0.02
2014-1-5,15.1,3.7,-10.3,8.0,-5.5,-18.3,73,65,54,30.29,30.17,0,-999,0,0.00
2014-1-6,-9.0,-14.1,-19.7,-16.6,-21.6,-27.2,75,68,59,30.36,30.23,0,-999,0,0.00
2014-1-7,1.7,-7.1,-16.3,-8.3,-15.1,-99.9,78,71,61,30.43,30.33,0,-999,0,0.00
2014-1-8,9.2,0.1,-7.0,-1.1,-6.6,-11.0,82,73,61,30.63,30.41,0,-999,0,0.00
2014-1-9,21.7,7.9,-9.2,19.5,3.4,-13.4,91,82,70,30.64,30.22,0,-999,0,0.00
2014-1-10,34.9,29.3,21.8,33.9,28.0,19.6,96,95,91,30.22,29.52,0,-999,0,0.18
2014-1-11,34.9,31.5,27.3,34.1,29.3,24.1,97,92,86,29.82,29.49,0,-999,0,0.07
2014-1-12,39.6,32.8,24.7,32.9,28.8,22.4,94,86,73,29.84,29.60,0,-999,0,0.16
2014-1-13,41.6,33.8,25.1,34.0,28.8,20.6,91,82,69,29.78,29.57,0,-999,0,0.12
2014-1-14,33.1,25.9,15.5,31.6,23.1,11.9,94,89,83,29.99,29.56,0,-999,0,0.00
2014-1-15,17.5,12.9,9.7,14.0,8.3,4.6,87,82,70,30.17,29.77,0,-999,0,0.02
2014-1-16,35.4,23.7,12.0,32.2,18.9,5.0,91,82,67,29.80,29.49,0,-999,0,0.01
2014-1-17,19.3,13.2,7.6,13.6,7.9,2.1,85,79,71,30.06,29.80,0,-999,0,0.00
2014-1-18,20.7,11.1,4.0,16.3,7.4,0.2,91,85,79,30.01,29.84,0,-999,0,0.00
2014-1-19,33.7,24.2,8.3,29.1,19.8,5.7,91,83,71,29.94,29.58,0,-999,0,0.01
2014-1-20,33.6,21.3,6.5,29.0,17.0,-0.6,87,83,72,30.31,29.70,0,-999,0,0.00
2014-1-21,6.4,0.4,-4.5,-0.4,-6.9,-9.6,78,71,54,30.46,30.27,0,-999,0,0.00
2014-1-22,13.1,4.1,-3.8,6.8,-2.2,-11.8,83,75,65,30.34,30.00,0,-999,0,0.00
2014-1-23,6.6,-1.7,-10.2,-3.7,-9.3,-15.7,79,69,58,30.70,30.34,0,-999,0,0.00
2014-1-24,30.0,11.6,-9.9,28.0,5.1,-15.4,92,75,63,30.59,29.50,0,-999,0,0.00
2014-1-25,31.1,14.1,4.6,28.8,2.0,-5.8,92,58,44,29.93,29.49,0,-999,0,0.00
2014-1-26,26.5,12.6,2.0,19.0,6.7,-3.1,88,77,57,29.95,29.47,0,-999,0,0.00
2014-1-27,1.9,-5.4,-10.9,-3.4,-13.9,-18.0,79,66,54,30.53,29.96,0,-999,0,0.00
2014-1-28,2.0,-5.7,-14.4,-8.4,-13.3,-19.5,79,69,59,30.53,30.31,0,-999,0,0.00
2014-1-29,20.9,8.0,-5.0,11.4,-0.5,-10.7,79,69,52,30.32,29.93,0,-999,0,0.00
2014-1-30,29.7,24.3,15.8,27.1,18.1,9.5,93,77,66,30.02,29.63,0,-999,0,0.00
2014-1-31,17.2,10.1,5.3,9.0,2.9,-1.4,83,73,58,30.25,30.02,0,-999,0,0.00